Location: Shepherdstown, WV
(39.4326°N, 77.8042°W)
Time: 03:40:52
(UTC-04:00)

Tiros 1 despin weight - Pass Details

Date: 24 July 2021
Orbit: 593 x 641 km, 48.2° (Epoch: 27 September)

Event Time Altitude Azimuth Distance (km) Brightness Sun altitude
Rises 23:03:21 0° 300° (WNW) 2,921 ? -23.1°
Reaches altitude 10° 23:05:42 10° 300° (WNW) 2,004 ? -23.4°
Enters shadow 23:10:16 80° 221° (SW) 633 ? -23.9°
